�������l�o���
Date,Time,MP-1(��Sv/h),MP-2(��Sv/h),MP-3(��Sv/h),MP-4(��Sv/h),MP-5(��Sv/h),MP-6(��Sv/h),MP-7(��Sv/h),MP-8(��Sv/h),����,����(m/s),���J
2016/10/29,00:00,1.084,1.851,1.259,2.083,1.430,0.595,1.046,0.971,�k��,8.3,�L
2016/10/29,00:10,1.082,1.850,1.258,2.079,1.425,0.594,1.043,0.970,�k�k��,7.7,�L
2016/10/29,00:20,1.083,1.853,1.261,2.080,1.429,0.597,1.045,0.970,�k�k��,8.0,�L
2016/10/29,00:30,1.083,1.854,1.260,2.085,1.432,0.598,1.045,0.969,�k�k��,7.2,��
2016/10/29,00:40,1.087,1.863,1.261,2.089,1.431,0.596,1.047,0.970,�k�k��,8.5,��
2016/10/29,00:50,1.087,1.864,1.262,2.085,1.438,0.596,1.046,0.970,�k�k��,8.6,��
2016/10/29,01:00,1.085,1.863,1.258,2.088,1.436,0.596,1.046,0.970,�k�k��,8.5,��
2016/10/29,01:10,1.086,1.867,1.262,2.088,1.436,0.595,1.047,0.972,�k�k��,7.7,��
2016/10/29,01:20,1.085,1.866,1.263,2.090,1.438,0.593,1.045,0.969,�k�k��,9.3,��
2016/10/29,01:30,1.088,1.867,1.260,2.090,1.440,0.595,1.046,0.968,�k�k��,8.8,�L
2016/10/29,01:40,1.085,1.864,1.260,2.091,1.435,0.595,1.047,0.970,�k�k��,9.7,�L
2016/10/29,01:50,1.087,1.870,1.261,2.091,1.439,0.595,1.046,0.972,�k�k��,9.3,��
2016/10/29,02:00,1.088,1.869,1.260,2.088,1.440,0.595,1.045,0.971,�k�k��,10.5,��
2016/10/29,02:10,1.085,1.868,1.260,2.089,1.438,0.594,1.047,0.971,�k�k��,10.2,��
2016/10/29,02:20,1.085,1.868,1.261,2.091,1.437,0.594,1.049,0.972,�k�k��,10.0,��
2016/10/29,02:30,1.088,1.869,1.261,2.089,1.439,0.593,1.047,0.970,�k�k��,8.8,��
2016/10/29,02:40,1.084,1.870,1.261,2.089,1.440,0.594,1.046,0.971,�k�k��,8.3,��
2016/10/29,02:50,1.084,1.873,1.257,2.093,1.439,0.592,1.048,0.970,�k�k��,9.1,��
2016/10/29,03:00,1.087,1.872,1.257,2.089,1.440,0.592,1.048,0.971,�k�k��,8.3,��
2016/10/29,03:10,1.087,1.871,1.260,2.090,1.440,0.592,1.050,0.971,�k�k��,10.4,��
2016/10/29,03:20,1.086,1.872,1.260,2.093,1.440,0.593,1.049,0.970,�k�k��,8.5,��
2016/10/29,03:30,1.084,1.873,1.258,2.090,1.441,0.592,1.049,0.972,�k�k��,9.1,��
2016/10/29,03:40,1.085,1.873,1.258,2.090,1.440,0.592,1.048,0.971,�k�k��,8.2,��
2016/10/29,03:50,1.085,1.874,1.258,2.089,1.439,0.591,1.048,0.972,�k�k��,9.4,��
2016/10/29,04:00,1.087,1.872,1.258,2.092,1.441,0.592,1.050,0.972,�k�k��,9.6,��
2016/10/29,04:10,1.084,1.873,1.259,2.093,1.442,0.592,1.049,0.971,�k�k��,9.3,��
2016/10/29,04:20,1.085,1.872,1.259,2.093,1.443,0.591,1.048,0.971,�k�k��,9.1,��
2016/10/29,04:30,1.085,1.873,1.259,2.091,1.441,0.591,1.049,0.971,�k�k��,9.1,��
2016/10/29,04:40,1.085,1.875,1.261,2.092,1.444,0.591,1.050,0.972,�k�k��,7.7,��
2016/10/29,04:50,1.085,1.876,1.261,2.094,1.444,0.591,1.050,0.973,�k�k��,8.6,��
2016/10/29,05:00,1.084,1.874,1.259,2.094,1.444,0.593,1.049,0.974,�k�k��,12.9,��
2016/10/29,05:10,1.086,1.873,1.261,2.093,1.442,0.592,1.051,0.972,�k�k��,13.4,��
2016/10/29,05:20,1.086,1.875,1.262,2.096,1.443,0.593,1.052,0.976,�k��,15.6,��
2016/10/29,05:30,1.086,1.876,1.261,2.093,1.445,0.592,1.053,0.972,�k��,11.3,��
2016/10/29,05:40,1.086,1.877,1.261,2.094,1.446,0.593,1.052,0.972,�k�k��,10.5,��
2016/10/29,05:50,1.088,1.873,1.261,2.096,1.443,0.592,1.052,0.975,�k��,10.5,��
2016/10/29,06:00,1.086,1.879,1.263,2.096,1.449,0.594,1.054,0.971,�k��,12.7,��
2016/10/29,06:10,1.089,1.879,1.264,2.098,1.446,0.594,1.052,0.974,�k��,11.1,��
2016/10/29,06:20,1.089,1.878,1.264,2.099,1.447,0.591,1.053,0.975,�k��,10.2,��
2016/10/29,06:30,1.084,1.879,1.261,2.100,1.446,0.595,1.051,0.972,���k��,8.6,��
2016/10/29,06:40,1.089,1.879,1.263,2.101,1.449,0.592,1.054,0.974,���k��,8.6,��
2016/10/29,06:50,1.089,1.880,1.262,2.101,1.449,0.593,1.053,0.974,���k��,9.7,��
2016/10/29,07:00,1.086,1.880,1.265,2.103,1.449,0.593,1.052,0.975,���k��,9.1,��
2016/10/29,07:10,1.089,1.882,1.264,2.103,1.449,0.594,1.053,0.973,��,8.3,��
2016/10/29,07:20,1.088,1.879,1.265,2.103,1.448,0.593,1.055,0.971,��,6.9,��
2016/10/29,07:30,1.089,1.884,1.266,2.106,1.449,0.594,1.053,0.975,��,6.1,��
2016/10/29,07:40,1.090,1.883,1.267,2.106,1.452,0.595,1.054,0.974,���k��,6.7,��
2016/10/29,07:50,1.093,1.882,1.270,2.103,1.452,0.595,1.056,0.976,���k��,7.5,��
2016/10/29,08:00,1.091,1.879,1.267,2.106,1.450,0.594,1.057,0.974,���k��,7.2,��
2016/10/29,08:10,1.092,1.883,1.267,2.106,1.452,0.595,1.055,0.976,���k��,7.1,��
2016/10/29,08:20,1.092,1.885,1.270,2.108,1.452,0.596,1.054,0.974,���k��,7.2,��
2016/10/29,08:30,1.092,1.887,1.269,2.106,1.453,0.595,1.054,0.975,�k��,5.2,��
2016/10/29,08:40,1.093,1.887,1.264,2.111,1.454,0.596,1.054,0.977,���k��,6.4,��
2016/10/29,08:50,1.093,1.888,1.268,2.108,1.455,0.596,1.055,0.976,���k��,5.6,��
2016/10/29,09:00,1.092,1.881,1.269,2.108,1.454,0.597,1.058,0.977,���k��,6.3,��
2016/10/29,09:10,1.093,1.882,1.264,2.110,1.455,0.597,1.057,0.974,�k��,2.9,��
2016/10/29,09:20,1.093,1.883,1.272,2.109,1.454,0.596,1.056,0.975,�k�k��,4.4,��
2016/10/29,09:30,1.094,1.881,1.270,2.113,1.452,0.595,1.059,0.976,�k�k��,6.3,��
2016/10/29,09:40,1.095,1.885,1.272,2.110,1.456,0.594,1.057,0.976,�k�k��,7.1,��
2016/10/29,09:50,1.098,1.885,1.268,2.113,1.459,0.595,1.058,0.975,�k�k��,6.6,��
2016/10/29,10:00,1.097,1.886,1.270,2.114,1.459,0.593,1.059,0.974,�k,6.9,��
2016/10/29,10:10,1.096,1.883,1.269,2.114,1.457,0.594,1.058,0.973,�k,9.6,��
2016/10/29,10:20,1.096,1.889,1.272,2.111,1.458,0.593,1.057,0.974,�k,8.5,��
2016/10/29,10:30,1.093,1.881,1.270,2.113,1.461,0.594,1.059,0.972,�k,6.3,��
2016/10/29,10:40,1.093,1.883,1.265,2.114,1.459,0.593,1.058,0.975,�k,8.3,��
2016/10/29,10:50,1.097,1.889,1.269,2.117,1.458,0.595,1.059,0.973,�k,9.4,��
2016/10/29,11:00,1.093,1.886,1.266,2.114,1.458,0.595,1.058,0.975,�k,8.3,��
2016/10/29,11:10,1.093,1.890,1.267,2.114,1.458,0.593,1.058,0.974,�k,8.0,��
2016/10/29,11:20,1.095,1.892,1.271,2.115,1.461,0.594,1.059,0.974,�k,8.8,��
2016/10/29,11:30,1.096,1.888,1.268,2.116,1.457,0.595,1.055,0.976,�k,7.5,��
2016/10/29,11:40,1.096,1.890,1.268,2.119,1.460,0.595,1.057,0.974,�k,8.8,��
2016/10/29,11:50,1.097,1.893,1.270,2.117,1.458,0.597,1.055,0.975,�k,9.3,��
2016/10/29,12:00,1.095,1.892,1.270,2.116,1.461,0.595,1.057,0.975,�k,8.6,��
2016/10/29,12:10,1.096,1.895,1.270,2.117,1.460,0.596,1.056,0.975,�k,7.1,��
2016/10/29,12:20,1.097,1.894,1.271,2.118,1.459,0.596,1.059,0.974,�k,6.9,��
2016/10/29,12:30,1.095,1.895,1.272,2.116,1.462,0.596,1.058,0.975,�k,5.8,��
2016/10/29,12:40,1.099,1.896,1.272,2.119,1.460,0.595,1.060,0.974,�k��,8.9,��
2016/10/29,12:50,1.096,1.898,1.273,2.117,1.458,0.596,1.059,0.975,�k��,8.3,��
2016/10/29,13:00,1.097,1.896,1.271,2.118,1.463,0.596,1.057,0.975,�k��,6.7,��
2016/10/29,13:10,1.097,1.889,1.272,2.118,1.462,0.596,1.060,0.975,�k��,7.1,��
2016/10/29,13:20,1.098,1.890,1.273,2.122,1.460,0.596,1.060,0.976,�k��,9.3,��
2016/10/29,13:30,1.100,1.894,1.273,2.120,1.463,0.595,1.061,0.975,���k��,8.5,��
2016/10/29,13:40,1.098,1.897,1.273,2.117,1.463,0.595,1.059,0.974,���k��,8.6,��
2016/10/29,13:50,1.098,1.898,1.273,2.120,1.466,0.596,1.057,0.977,���k��,8.0,��
2016/10/29,14:00,1.099,1.896,1.271,2.122,1.464,0.594,1.058,0.974,���k��,8.3,��
2016/10/29,14:10,1.099,1.901,1.273,2.123,1.463,0.595,1.060,0.975,���k��,8.3,��
2016/10/29,14:20,1.100,1.898,1.271,2.121,1.465,0.595,1.059,0.976,���k��,7.1,��
2016/10/29,14:30,1.098,1.901,1.273,2.122,1.465,0.596,1.059,0.976,�k��,8.0,��
2016/10/29,14:40,1.098,1.900,1.272,2.123,1.465,0.596,1.058,0.975,�k��,9.9,��
2016/10/29,14:50,1.097,1.901,1.275,2.123,1.465,0.596,1.058,0.977,���k��,7.2,��
2016/10/29,15:00,1.101,1.901,1.273,2.125,1.465,0.598,1.059,0.976,���k��,6.9,��
2016/10/29,15:10,1.098,1.903,1.272,2.122,1.464,0.597,1.058,0.978,�k��,5.8,��
2016/10/29,15:20,1.097,1.903,1.275,2.121,1.466,0.598,1.059,0.978,���k��,6.7,��
2016/10/29,15:30,1.097,1.901,1.275,2.122,1.465,0.597,1.059,0.976,���k��,5.2,��
2016/10/29,15:40,1.098,1.901,1.276,2.122,1.466,0.596,1.058,0.978,�k��,5.5,��
2016/10/29,15:50,1.096,1.902,1.272,2.123,1.468,0.596,1.059,0.979,�k��,6.0,��
2016/10/29,16:00,1.095,1.899,1.274,2.122,1.464,0.597,1.058,0.978,�k��,6.3,��
2016/10/29,16:10,1.095,1.904,1.271,2.124,1.468,0.596,1.058,0.976,�k��,4.5,��
2016/10/29,16:20,1.094,1.900,1.272,2.122,1.468,0.596,1.058,0.977,�k��,5.8,��
2016/10/29,16:30,1.097,1.905,1.272,2.124,1.468,0.596,1.057,0.977,�k�k��,7.1,��
2016/10/29,16:40,1.095,1.905,1.272,2.122,1.468,0.598,1.058,0.977,�k��,7.7,��
2016/10/29,16:50,1.095,1.904,1.273,2.121,1.466,0.596,1.060,0.977,�k�k��,7.7,��
2016/10/29,17:00,1.095,1.905,1.273,2.122,1.468,0.596,1.060,0.977,�k�k��,6.9,��
2016/10/29,17:10,1.095,1.903,1.272,2.124,1.467,0.596,1.058,0.977,�k��,6.3,��
2016/10/29,17:20,1.096,1.902,1.272,2.123,1.464,0.596,1.061,0.978,�k��,6.6,��
2016/10/29,17:30,1.094,1.900,1.272,2.123,1.466,0.594,1.060,0.977,�k��,6.9,��
2016/10/29,17:40,1.094,1.901,1.272,2.123,1.468,0.596,1.062,0.976,�k��,7.5,��
2016/10/29,17:50,1.097,1.904,1.273,2.124,1.466,0.596,1.061,0.976,�k��,8.3,��
2016/10/29,18:00,1.095,1.903,1.271,2.122,1.468,0.595,1.060,0.978,�k�k��,7.2,��
2016/10/29,18:10,1.093,1.902,1.272,2.123,1.468,0.594,1.058,0.978,�k�k��,7.7,��
2016/10/29,18:20,1.095,1.904,1.270,2.122,1.468,0.595,1.060,0.975,�k�k��,9.3,��
2016/10/29,18:30,1.094,1.904,1.271,2.122,1.469,0.595,1.059,0.977,�k�k��,7.1,��
2016/10/29,18:40,1.095,1.905,1.271,2.120,1.470,0.594,1.061,0.976,�k�k��,4.5,��
2016/10/29,18:50,1.095,1.905,1.272,2.123,1.467,0.595,1.061,0.977,�k�k��,5.2,��
2016/10/29,19:00,1.093,1.905,1.272,2.126,1.468,0.593,1.059,0.978,�k�k��,7.4,��
2016/10/29,19:10,1.091,1.904,1.272,2.122,1.470,0.595,1.060,0.976,�k�k��,7.4,��
2016/10/29,19:20,1.094,1.902,1.273,2.123,1.471,0.594,1.060,0.977,�k�k��,6.7,��
2016/10/29,19:30,1.094,1.903,1.272,2.122,1.468,0.596,1.061,0.975,�k,5.5,��
2016/10/29,19:40,1.093,1.904,1.271,2.122,1.467,0.596,1.061,0.976,�k,3.8,��
2016/10/29,19:50,1.094,1.901,1.272,2.123,1.469,0.594,1.058,0.977,�k,4.4,��
2016/10/29,20:00,1.092,1.903,1.270,2.126,1.468,0.593,1.059,0.977,�k,5.2,��
2016/10/29,20:10,1.094,1.903,1.276,2.124,1.470,0.593,1.060,0.975,�k,5.5,��
2016/10/29,20:20,1.095,1.904,1.271,2.121,1.467,0.593,1.060,0.979,�k,5.2,��
2016/10/29,20:30,1.095,1.903,1.272,2.124,1.468,0.595,1.060,0.976,�k,4.1,��
2016/10/29,20:40,1.094,1.904,1.271,2.124,1.470,0.594,1.057,0.978,�k,6.3,��
2016/10/29,20:50,1.093,1.901,1.270,2.122,1.468,0.594,1.061,0.977,�k,6.4,��
2016/10/29,21:00,1.093,1.904,1.271,2.123,1.466,0.597,1.057,0.979,�k,7.1,��
2016/10/29,21:10,1.092,1.903,1.271,2.123,1.470,0.595,1.059,0.977,�k,7.8,��
2016/10/29,21:20,1.094,1.905,1.271,2.121,1.467,0.595,1.058,0.977,�k,7.8,��
2016/10/29,21:30,1.093,1.903,1.272,2.122,1.468,0.594,1.060,0.977,�k,6.6,��
2016/10/29,21:40,1.094,1.902,1.268,2.120,1.466,0.592,1.060,0.975,�k,4.9,��
2016/10/29,21:50,1.094,1.901,1.268,2.120,1.468,0.595,1.059,0.977,�k,4.4,��
2016/10/29,22:00,1.096,1.903,1.269,2.121,1.469,0.594,1.059,0.976,�k,4.7,��
2016/10/29,22:10,1.093,1.900,1.271,2.119,1.468,0.593,1.057,0.975,�k,5.5,��
2016/10/29,22:20,1.092,1.902,1.271,2.120,1.469,0.592,1.059,0.977,�k,5.5,��
2016/10/29,22:30,1.092,1.906,1.271,2.120,1.468,0.595,1.061,0.976,�k�k��,5.5,��
2016/10/29,22:40,1.092,1.900,1.269,2.121,1.469,0.594,1.059,0.976,�k�k��,5.8,��
2016/10/29,22:50,1.091,1.903,1.270,2.122,1.468,0.594,1.057,0.977,�k�k��,5.2,��
2016/10/29,23:00,1.091,1.903,1.270,2.123,1.468,0.594,1.060,0.976,�k��,4.2,��
2016/10/29,23:10,1.091,1.903,1.269,2.122,1.468,0.593,1.059,0.976,�k��,4.4,��
2016/10/29,23:20,1.093,1.905,1.268,2.124,1.465,0.594,1.060,0.975,�k��,4.1,��
2016/10/29,23:30,1.090,1.905,1.268,2.123,1.468,0.595,1.059,0.978,�k�k��,3.8,��
2016/10/29,23:40,1.093,1.905,1.268,2.120,1.466,0.593,1.058,0.978,�k�k��,5.0,��
2016/10/29,23:50,1.094,1.904,1.270,2.125,1.465,0.594,1.059,0.975,�k�k��,4.6,��
